DW1520 Weather Reports


Display with metric or nautical units.
time (UTC)temp
F
wind
direction
speed
MPH
gust
MPH
rain 1hr
in
rain 24hr
in
rain mn
in
humidity
%
barometer
mb
20260508121005 41 155 1.0 3.0 0.00 0.00 0.00 59 1007.4
20260508120505 41 155 1.0 3.0 0.00 0.00 0.00 59 1007.4
20260508120005 40 155 2.0 3.0 0.00 0.00 0.00 59 1007.4
20260508115505 40 155 1.0 3.0 0.00 0.00 0.00 59 1007.3
20260508115005 39 155 1.0 3.0 0.00 0.00 0.00 59 1007.4
20260508114505 39 155 1.0 3.0 0.00 0.00 0.00 61 1007.4
20260508114006 39 155 1.0 3.0 0.00 0.00 0.00 60 1007.4
20260508113505 39 155 1.0 3.0 0.00 0.00 0.00 61 1007.4
20260508113006 39 155 1.0 3.0 0.00 0.00 0.00 61 1007.5
20260508112505 39 155 1.0 2.0 0.00 0.00 0.00 62 1007.4
20260508112005 39 155 1.0 2.0 0.00 0.00 0.00 60 1007.4
20260508111505 39 155 1.0 2.0 0.00 0.00 0.00 61 1007.4
20260508111006 39 155 0.0 2.0 0.00 0.00 0.00 59 1007.4
20260508110505 39 155 0.0 2.0 0.00 0.00 0.00 59 1007.5
20260508105505 39 155 0.0 1.0 0.00 0.00 0.00 57 1007.5
20260508105005 39 155 0.0 2.0 0.00 0.00 0.00 57 1007.5
20260508104504 40 155 1.0 2.0 0.00 0.00 0.00 58 1007.5
20260508104005 40 155 0.0 2.0 0.00 0.00 0.00 58 1007.4
20260508103506 40 155 1.0 3.0 0.00 0.00 0.00 58 1007.5
20260508103005 40 155 1.0 2.0 0.00 0.00 0.00 58 1007.4
20260508102505 40 155 1.0 2.0 0.00 0.00 0.00 57 1007.5
20260508102005 41 155 1.0 2.0 0.00 0.00 0.00 58 1007.5
20260508101505 41 155 1.0 3.0 0.00 0.00 0.00 57 1007.5
20260508101005 40 155 1.0 3.0 0.00 0.00 0.00 56 1007.5
20260508100505 40 156 1.0 3.0 0.00 0.00 0.00 58 1007.6
20260508100005 40 150 1.0 3.0 0.00 0.00 0.00 58 1007.6
20260508095505 40 150 2.0 3.0 0.00 0.00 0.00 57 1007.7
20260508095005 40 150 1.0 3.0 0.00 0.00 0.00 58 1007.7
20260508094506 40 148 2.0 3.0 0.00 0.00 0.00 58 1007.7
20260508094005 39 148 1.0 3.0 0.00 0.00 0.00 58 1007.7
20260508093507 39 148 1.0 3.0 0.00 0.00 0.00 59 1007.7
20260508093007 39 148 1.0 3.0 0.00 0.00 0.00 60 1007.7
20260508092006 38 148 1.0 3.0 0.00 0.00 0.00 64 1007.7
20260508090507 38 148 0.0 1.0 0.00 0.00 0.00 64 1007.7
20260508090007 38 148 0.0 0.0 0.00 0.00 0.00 65 1007.8
20260508085006 38 148 0.0 1.0 0.00 0.00 0.00 64 1007.9
20260508084506 38 148 0.0 1.0 0.00 0.00 0.00 66 1007.9
20260508084006 38 148 0.0 1.0 0.00 0.00 0.00 67 1007.9
20260508083506 38 148 0.0 1.0 0.00 0.00 0.00 67 1007.9
20260508083009 38 148 0.0 0.0 0.00 0.00 0.00 65 1007.9
20260508082506 38 148 0.0 0.0 0.00 0.00 0.00 63 1007.9
20260508082006 38 148 0.0 0.0 0.00 0.00 0.00 63 1008.0
20260508081507 37 148 0.0 2.0 0.00 0.00 0.00 66 1008.1
20260508081007 37 146 0.0 2.0 0.00 0.00 0.00 67 1008.1
20260508080506 37 306 0.0 2.0 0.00 0.00 0.00 69 1008.2
20260508080006 37 306 0.0 0.0 0.00 0.00 0.00 69 1008.2
20260508075506 37 306 0.0 0.0 0.00 0.00 0.00 70 1008.2
20260508075006 37 306 0.0 0.0 0.00 0.00 0.00 70 1008.2
20260508074506 37 306 0.0 0.0 0.00 0.00 0.00 70 1008.2
20260508074007 37 306 0.0 0.0 0.00 0.00 0.00 71 1008.2
20260508073506 37 306 0.0 0.0 0.00 0.00 0.00 70 1008.3
20260508073006 37 306 0.0 0.0 0.00 0.00 0.00 71 1008.3
20260508072506 37 306 0.0 0.0 0.00 0.00 0.00 73 1008.4
20260508072006 37 306 0.0 0.0 0.00 0.00 0.00 72 1008.4
20260508071507 37 306 0.0 0.0 0.00 0.00 0.00 70 1008.4
20260508071007 38 306 0.0 0.0 0.00 0.00 0.00 66 1008.4
20260508070506 38 306 0.0 0.0 0.00 0.00 0.00 65 1008.5
20260508070007 38 306 0.0 0.0 0.00 0.00 0.00 65 1008.5
20260508065506 38 306 0.0 0.0 0.00 0.00 0.00 66 1008.6
20260508065006 38 306 0.0 0.0 0.00 0.00 0.00 65 1008.6
20260508064006 38 306 0.0 0.0 0.00 0.00 0.00 66 1008.6
20260508063506 38 306 0.0 0.0 0.00 0.00 0.00 67 1008.7
20260508062006 38 306 0.0 0.0 0.00 0.00 0.00 67 1008.8
20260508061506 38 306 0.0 0.0 0.00 0.00 0.00 69 1008.8
20260508061007 39 306 0.0 0.0 0.00 0.00 0.00 71 1008.9
20260508060006 39 306 0.0 0.0 0.00 0.00 0.00 71 1008.9
20260508055506 39 306 0.0 0.0 0.00 0.00 0.00 70 1009.0
20260508055007 40 306 0.0 0.0 0.00 0.00 0.00 67 1008.9
20260508054506 40 306 0.0 0.0 0.00 0.00 0.00 64 1009.0
20260508054007 40 306 0.0 0.0 0.00 0.00 0.00 63 1009.0
20260508052506 40 306 0.0 0.0 0.00 0.00 0.00 62 1009.2
20260508052006 40 306 0.0 0.0 0.00 0.00 0.00 64 1009.1
20260508051506 40 306 0.0 0.0 0.00 0.00 0.00 64 1009.2
20260508051006 40 306 0.0 0.0 0.00 0.00 0.00 61 1009.1
20260508050506 40 306 0.0 0.0 0.00 0.00 0.00 62 1009.2
20260508050006 40 306 0.0 0.0 0.00 0.00 0.00 62 1009.2
20260508045506 41 306 0.0 0.0 0.00 0.00 0.00 63 1009.3
20260508045006 41 306 0.0 0.0 0.00 0.00 0.00 62 1009.2
20260508044506 40 306 0.0 0.0 0.00 0.00 0.00 61 1009.2
20260508044006 41 306 0.0 0.0 0.00 0.00 0.00 57 1009.2
20260508043506 41 306 0.0 0.0 0.00 0.00 0.00 56 1009.2
20260508043014 41 306 0.0 0.0 0.00 0.00 0.00 55 1009.3
20260508042506 41 306 0.0 0.0 0.00 0.00 0.00 54 1009.2
20260508042007 41 306 0.0 0.0 0.00 0.00 0.00 54 1009.2
20260508041506 42 306 0.0 0.0 0.00 0.00 0.00 54 1009.2
20260508041006 42 306 0.0 0.0 0.00 0.00 0.00 53 1009.2
20260508040507 42 306 0.0 0.0 0.00 0.00 0.00 53 1009.3
20260508035506 43 306 0.0 0.0 0.00 0.00 0.00 53 1009.3
20260508035006 43 306 0.0 0.0 0.00 0.00 0.00 55 1009.3
20260508034506 44 306 0.0 0.0 0.00 0.00 0.00 57 1009.4
20260508033506 44 306 0.0 0.0 0.00 0.00 0.00 47 1009.3
20260508033006 44 306 0.0 0.0 0.00 0.00 0.00 46 1009.3
20260508032506 44 306 0.0 0.0 0.00 0.00 0.00 46 1009.3
20260508031506 45 306 0.0 0.0 0.00 0.00 0.00 45 1009.3
20260508025506 46 306 0.0 0.0 0.00 0.00 0.00 43 1009.2
20260508025006 46 306 0.0 0.0 0.00 0.00 0.00 42 1009.2
20260508024506 46 306 0.0 0.0 0.00 0.00 0.00 42 1009.2
20260508022506 48 306 0.0 0.0 0.00 0.00 0.00 39 1009.1
20260508022007 48 306 0.0 0.0 0.00 0.00 0.00 38 1008.9
20260508021506 49 306 0.0 0.0 0.00 0.00 0.00 38 1008.9
20260508021006 49 306 0.0 0.0 0.00 0.00 0.00 38 1008.9
20260508020506 49 306 0.0 0.0 0.00 0.00 0.00 38 1008.8
20260508020007 49 306 0.0 0.0 0.00 0.00 0.00 38 1008.8
20260508015506 50 306 0.0 0.0 0.00 0.00 0.00 37 1008.7
20260508015006 50 306 0.0 0.0 0.00 0.00 0.00 37 1008.7
20260508014506 51 306 0.0 0.0 0.00 0.00 0.00 37 1008.7
20260508014006 51 306 0.0 0.0 0.00 0.00 0.00 37 1008.6
20260508013507 51 306 0.0 0.0 0.00 0.00 0.00 35 1008.5
20260508012506 51 306 0.0 0.0 0.00 0.00 0.00 35 1008.5
20260508012006 52 306 0.0 0.0 0.00 0.00 0.00 36 1008.5
20260508011506 52 306 0.0 0.0 0.00 0.00 0.00 35 1008.5
20260508010506 52 306 0.0 0.0 0.00 0.00 0.00 37 1008.4
20260508010006 53 306 0.0 0.0 0.00 0.00 0.00 39 1008.4
20260508005506 53 306 0.0 0.0 0.00 0.00 0.00 37 1008.4
20260508005007 54 306 0.0 0.0 0.00 0.00 0.00 38 1008.5
20260508004505 54 306 0.0 0.0 0.00 0.00 0.00 35 1008.4
20260508004006 54 306 0.0 0.0 0.00 0.00 0.00 34 1008.4
20260508003507 55 306 0.0 0.0 0.00 0.00 0.00 34 1008.4
20260508003008 55 306 0.0 2.0 0.00 0.00 0.00 31 1008.4
20260508002506 55 306 1.0 3.0 0.00 0.00 0.00 31 1008.4
20260508002006 55 306 1.0 2.0 0.00 0.00 0.00 33 1008.4
20260508001506 55 306 1.0 2.0 0.00 0.00 0.00 31 1008.5
20260508001006 55 306 0.0 2.0 0.00 0.00 0.00 31 1008.5
20260508000006 56 310 0.0 3.0 0.00 0.00 0.00 31 1008.5
20260507235506 56 302 1.0 2.0 0.00 0.00 0.00 30 1008.6
20260507235006 56 302 1.0 2.0 0.00 0.00 0.00 29 1008.7
20260507234006 56 302 0.0 3.0 0.00 0.00 0.00 31 1008.7
20260507233507 56 302 2.0 3.0 0.00 0.00 0.00 29 1008.7
20260507233006 56 302 2.0 3.0 0.00 0.00 0.00 29 1008.7
20260507232506 56 290 2.0 3.0 0.00 0.00 0.00 28 1008.6
20260507232006 56 311 1.0 3.0 0.00 0.00 0.00 29 1008.6
20260507231506 57 311 2.0 3.0 0.00 0.00 0.00 30 1008.6
20260507231007 57 311 2.0 7.0 0.00 0.00 0.00 30 1008.7
20260507230506 56 330 1.0 3.0 0.00 0.00 0.00 30 1008.7
20260507230006 56 330 2.0 3.0 0.00 0.00 0.00 29 1008.7
20260507225506 56 330 1.0 3.0 0.00 0.00 0.00 29 1008.8
20260507225007 56 330 2.0 8.0 0.00 0.00 0.00 29 1008.8
20260507224506 57 296 3.0 8.0 0.00 0.00 0.00 29 1008.8
20260507224007 56 306 3.0 7.0 0.00 0.00 0.00 31 1008.8
20260507223006 56 304 3.0 10.0 0.00 0.00 0.00 29 1008.9
20260507221506 56 297 2.0 8.0 0.00 0.00 0.00 29 1009.0
20260507221006 56 297 2.0 9.0 0.00 0.00 0.00 29 1008.9
20260507220006 56 295 4.0 9.0 0.00 0.00 0.00 29 1009.1
20260507215506 57 286 3.0 10.0 0.00 0.00 0.00 30 1009.1
20260507215006 57 283 2.0 8.0 0.00 0.00 0.00 29 1009.0
20260507214506 57 265 1.0 2.0 0.00 0.00 0.00 27 1008.9
20260507214006 57 313 2.0 6.0 0.00 0.00 0.00 30 1009.0
20260507213506 57 224 3.0 6.0 0.00 0.00 0.00 28 1009.0
20260507213006 57 309 2.0 8.0 0.00 0.00 0.00 29 1009.0
20260507212505 56 298 3.0 8.0 0.00 0.00 0.00 30 1009.0
20260507212006 57 313 2.0 8.0 0.00 0.00 0.00 28 1009.0
20260507211507 56 297 3.0 9.0 0.00 0.00 0.00 30 1009.0
20260507211006 56 347 2.0 5.0 0.00 0.00 0.00 29 1009.0
20260507210506 57 308 2.0 7.0 0.00 0.00 0.00 31 1009.1
20260507210006 57 293 3.0 8.0 0.00 0.00 0.00 32 1009.1
20260507205006 58 225 2.0 5.0 0.00 0.00 0.00 28 1009.1
20260507204506 57 218 2.0 6.0 0.00 0.00 0.00 31 1009.1
20260507204006 57 315 1.0 5.0 0.00 0.00 0.00 29 1009.2
20260507203506 57 312 2.0 5.0 0.00 0.00 0.00 30 1009.3
20260507203007 56 329 2.0 5.0 0.00 0.00 0.00 29 1009.3
20260507202006 56 329 2.0 7.0 0.00 0.00 0.00 29 1009.4
20260507201505 56 218 3.0 9.0 0.00 0.00 0.00 29 1009.5
20260507201007 57 303 2.0 5.0 0.00 0.00 0.00 30 1009.4
20260507200506 56 249 2.0 5.0 0.00 0.00 0.00 33 1009.4
20260507200006 56 286 2.0 9.0 0.00 0.00 0.00 30 1009.5
20260507195006 56 261 2.0 3.0 0.00 0.00 0.00 30 1009.6
20260507194506 56 302 3.0 7.0 0.00 0.00 0.00 31 1009.7
20260507194006 56 332 2.0 5.0 0.00 0.00 0.00 33 1009.7
20260507193506 56 311 2.0 3.0 0.00 0.00 0.00 35 1009.6
20260507193006 56 308 3.0 5.0 0.00 0.00 0.00 31 1009.7
20260507192506 56 292 3.0 7.0 0.00 0.00 0.00 32 1009.6
20260507192006 57 303 2.0 3.0 0.00 0.00 0.00 33 1009.6
20260507191505 57 217 2.0 6.0 0.00 0.00 0.00 31 1009.7
20260507191007 56 304 2.0 6.0 0.00 0.00 0.00 34 1009.7
20260507190506 56 333 2.0 8.0 0.00 0.00 0.00 31 1009.7
20260507190006 56 210 2.0 5.0 0.00 0.00 0.00 34 1009.9
20260507185506 56 288 2.0 3.0 0.00 0.00 0.00 34 1009.9
20260507185006 56 302 1.0 3.0 0.00 0.00 0.00 34 1009.9
20260507184505 55 303 1.0 7.0 0.00 0.00 0.00 36 1009.8
20260507184006 55 313 2.0 9.0 0.00 0.00 0.00 36 1009.9
20260507183506 55 300 3.0 9.0 0.00 0.00 0.00 36 1009.9
20260507183006 55 238 2.0 5.0 0.00 0.00 0.00 36 1010.0
20260507182506 55 310 2.0 8.0 0.00 0.00 0.00 35 1010.0
20260507182006 55 1 2.0 12.0 0.00 0.00 0.00 35 1010.1
20260507181006 55 302 2.0 7.0 0.00 0.00 0.00 36 1010.1
20260507180506 54 306 4.0 9.0 0.00 0.00 0.00 38 1010.2
20260507180005 54 297 3.0 5.0 0.00 0.00 0.00 37 1010.3
20260507175506 54 301 2.0 5.0 0.00 0.00 0.00 37 1010.3
20260507175006 54 246 2.0 8.0 0.00 0.00 0.00 35 1010.4
20260507174506 54 319 2.0 3.0 0.00 0.00 0.00 36 1010.5
20260507174006 54 323 2.0 3.0 0.00 0.00 0.00 35 1010.5
20260507173506 54 224 2.0 3.0 0.00 0.00 0.00 41 1010.5
20260507173006 53 309 1.0 3.0 0.00 0.00 0.00 39 1010.6
20260507172505 53 328 1.0 3.0 0.00 0.00 0.00 38 1010.6
20260507172006 53 325 2.0 5.0 0.00 0.00 0.00 39 1010.6
20260507170005 53 202 2.0 5.0 0.00 0.00 0.00 38 1010.8
20260507165505 53 344 1.0 3.0 0.00 0.00 0.00 42 1010.9
20260507165006 52 347 1.0 3.0 0.00 0.00 0.00 40 1011.0
20260507164506 52 314 2.0 5.0 0.00 0.00 0.00 42 1011.0
20260507164007 52 294 2.0 6.0 0.00 0.00 0.00 45 1011.0
20260507163506 52 296 2.0 5.0 0.00 0.00 0.00 42 1011.1
20260507163009 52 239 2.0 6.0 0.00 0.00 0.00 45 1011.0
20260507162506 52 348 2.0 6.0 0.00 0.00 0.00 45 1011.1
20260507162006 51 324 1.0 3.0 0.00 0.00 0.00 45 1011.1
20260507161506 51 324 2.0 5.0 0.00 0.00 0.00 42 1011.1
20260507161006 52 306 3.0 5.0 0.00 0.00 0.00 42 1011.3
20260507160506 52 304 1.0 5.0 0.00 0.00 0.00 46 1011.3
20260507160005 52 49 2.0 5.0 0.00 0.00 0.00 47 1011.2
20260507155506 51 324 1.0 3.0 0.00 0.00 0.00 47 1011.2
20260507155006 51 324 2.0 3.0 0.00 0.00 0.00 47 1011.2
20260507154505 51 328 1.0 3.0 0.00 0.00 0.00 47 1011.3
20260507154008 51 330 1.0 5.0 0.00 0.00 0.00 48 1011.2
20260507153505 51 301 2.0 6.0 0.00 0.00 0.00 50 1011.2
20260507153006 51 298 2.0 3.0 0.00 0.00 0.00 48 1011.2
20260507152506 51 298 2.0 3.0 0.00 0.00 0.00 49 1011.1
20260507152006 50 333 1.0 3.0 0.00 0.00 0.00 52 1011.2
20260507151506 50 355 2.0 3.0 0.00 0.00 0.00 49 1011.3
20260507151006 50 338 1.0 3.0 0.00 0.00 0.00 51 1011.3
20260507150506 50 325 2.0 3.0 0.00 0.00 0.00 51 1011.3
20260507150006 50 321 1.0 3.0 0.00 0.00 0.00 52 1011.4
20260507145505 49 314 1.0 5.0 0.00 0.00 0.00 53 1011.4
20260507145006 49 298 2.0 7.0 0.00 0.00 0.00 54 1011.4
20260507144506 49 11 0.0 3.0 0.00 0.00 0.00 54 1011.4
20260507144006 48 12 0.0 3.0 0.00 0.00 0.00 57 1011.5
20260507143506 48 317 1.0 3.0 0.00 0.00 0.00 57 1011.6
20260507143006 48 296 2.0 3.0 0.00 0.00 0.00 59 1011.6
20260507142506 47 309 1.0 3.0 0.00 0.00 0.00 61 1011.7
20260507142006 47 299 1.0 3.0 0.00 0.00 0.00 62 1011.7
20260507141505 46 313 2.0 3.0 0.00 0.00 0.00 62 1011.8
20260507140006 46 307 1.0 3.0 0.00 0.00 0.00 64 1011.9
20260507134506 43 309 1.0 3.0 0.00 0.00 0.00 71 1012.1
20260507134005 42 302 0.0 1.0 0.00 0.00 0.00 73 1012.0
20260507133006 41 302 0.0 0.0 0.00 0.00 0.00 76 1012.2
20260507132506 40 302 0.0 0.0 0.00 0.00 0.00 78 1012.2
20260507132006 40 302 0.0 1.0 0.00 0.00 0.00 80 1012.3
20260507131005 39 302 0.0 1.0 0.00 0.00 0.00 80 1012.2
20260507130006 38 302 1.0 2.0 0.00 0.00 0.00 84 1012.3
20260507125513 37 302 0.0 1.0 0.00 0.00 0.00 83 1012.3
20260507125006 36 302 0.0 1.0 0.00 0.00 0.00 82 1012.3
20260507124506 36 302 0.0 1.0 0.00 0.00 0.00 83 1012.4
20260507124005 36 302 0.0 0.0 0.00 0.00 0.00 82 1012.4
20260507123506 36 302 0.0 0.0 0.00 0.00 0.00 82 1012.4
20260507123007 36 302 0.0 0.0 0.00 0.00 0.00 82 1012.4
20260507122505 36 302 0.0 0.0 0.00 0.00 0.00 83 1012.4
20260507122006 36 302 0.0 0.0 0.00 0.00 0.00 84 1012.3
20260507121505 36 302 0.0 0.0 0.00 0.00 0.00 84 1012.3